Location: Nag� el Ma?a??a
(24.0667°N, 32.8833°E)
Time: 16:04:53
(UTC+00:00)

Gbstr 26 Del rocket - Pass Details

Date: 25 September 2021
Orbit: 492 x 1263 km, 51.8° (Epoch: 16 October)

Event Time Altitude Azimuth Distance (km) Brightness Sun altitude
Rises 02:54:57 0° 314° (NW) 4,027 6.8 -10.7°
Reaches altitude 10° 02:57:59 10° 310° (NW) 2,971 6.1 -10.0°
Maximum altitude 03:04:52 53° 236° (SW) 1,174 4.2 -8.4°
Drops below altitude 10° 03:10:30 10° 160° (SSE) 2,434 6.3 -7.1°
Sets 03:12:48 0° 155° (SSE) 3,250 7.1 -6.6°
